Lid_Strength_Index
5 5 5 5 5 5 5 4 4 4 5 5 5 5 5 5 5 4 4 4 4 4 4 4 4 4 8 13 13 7 6 7 8 8 9 10 11 12 14 13 12 14 13 11 11 12 12
5 5 5 5 5 5 5 5 5 4 5 5 5 5 5 5 5 5 4 4 5 4 4 4 4 5 11 17 9 9 10 9 10 10 10 10 11 11 13 13 13 13 12 13 12 12 12
5 5 5 5 5 5 6 6 5 5 5 5 5 5 5 5 5 5 4 5 5 4 5 5 4 7 13 14 10 10 10 11 11 10 12 9 10 11 12 14 11 12 15 15 15 14 14
5 5 5 5 5 5 5 5 5 5 5 5 5 5 5 5 4 4 4 5 5 5 5 4 4 9 13 8 9 10 10 11 11 9 10 10 10 10 12 11 12 14 17 20 16 13 14
5 5 5 5 5 5 5 5 5 5 5 5 5 5 5 5 4 4 5 5 5 5 5 6 10 12 15 8 11 10 11 12 12 11 10 8 9 13 16 19 18 19 22 20 18 15 15
5 5 5 5 5 5 5 5 5 5 5 5 5 5 5 5 4 4 5 5 5 7 8 9 10 14 12 13 11 10 11 11 12 14 14 14 15 19 19 20 25 23 23 21 22 17 16
5 5 5 5 5 5 5 5 5 5 5 5 5 5 5 5 4 4 7 11 13 14 13 14 14 14 13 11 9 12 11 12 13 15 18 16 18 21 20 19 19 20 22 23 20 18 19
5 5 5 5 5 5 5 5 5 5 5 5 5 5 5 4 4 5 8 12 11 12 17 12 12 12 11 11 14 12 10 15 15 18 17 18 19 18 16 16 17 18 20 21 20 17 18
5 5 5 5 5 5 5 5 5 5 5 5 5 5 4 4 5 8 10 10 8 10 17 14 12 12 11 11 14 14 12 14 16 17 18 18 17 15 16 17 18 17 19 19 20 17 17
5 5 5 5 5 5 4 4 5 5 5 5 4 4 4 4 9 10 11 7 7 10 24 17 14 12 12 12 15 11 11 14 16 18 17 17 15 16 17 17 17 19 16 17 18 19 22
5 5 5 5 5 4 4 4 5 5 5 5 5 5 4 4 10 10 8 7 7 12 30 16 14 9 11 14 14 14 11 13 17 16 17 18 17 17 18 17 16 18 15 17 18 19 20
4 4 4 4 4 4 4 4 4 4 4 4 3 3 3 6 8 7 6 7 10 22 31 17 14 14 15 14 14 13 13 12 13 16 16 17 15 16 16 15 16 15 17 17 18 19 25
4 4 4 4 4 4 4 4 3 2 2 2 3 2 4 5 9 5 8 12 22 27 18 17 16 14 15 16 15 14 16 17 19 25 22 17 17 15 15 17 15 16 19 30 31 28 27
4 4 4 4 4 3 3 2 2 2 2 2 3 3 5 5 6 7 12 18 27 24 18 13 14 14 17 15 16 16 17 20 17 18 24 25 27 17 15 17 18 18 18 24 28 26 24
4 4 4 4 3 2 2 2 1 2 2 2 4 8 8 6 5 9 16 23 23 18 14 15 16 18 19 15 17 18 19 19 17 17 26 24 22 15 14 14 15 17 19 13 17 18 20
4 4 3 2 2 1 1 1 2 2 2 2 9 10 8 5 7 12 18 20 19 12 12 13 19 19 20 18 20 20 21 17 17 15 16 23 25 17 14 13 14 15 12 17 15 21 21
4 3 2 1 1 1 2 2 2 2 2 3 12 15 8 6 9 15 23 27 15 11 11 16 17 17 19 21 20 20 19 17 16 16 15 17 21 19 16 18 18 15 15 14 14 16 20
3 3 1 1 1 1 2 2 2 2 2 7 16 19 8 8 16 27 23 22 11 12 11 14 16 18 17 18 24 24 20 20 16 15 20 15 22 24 20 14 14 15 15 13 18 21 18
2 2 1 1 1 1 1 1 2 2 3 11 19 20 10 10 21 24 21 21 15 14 13 13 16 15 20 16 19 22 24 18 17 19 22 17 24 28 27 19 14 18 14 13 13 14 19
2 1 1 1 1 1 1 1 2 2 2 11 18 20 17 18 17 20 23 21 20 13 14 12 13 13 17 20 18 19 18 16 13 15 11 12 17 24 24 21 16 18 15 13 14 18 18
2 1 1 1 1 1 1 1 1 2 3 10 18 21 19 22 21 22 18 24 20 20 14 14 19 17 20 20 20 20 17 18 15 12 15 16 20 23 19 16 15 16 16 15 16 15 18
2 1 1 1 0 1 0 1 1 2 4 12 18 19 19 23 16 19 16 20 18 17 19 19 18 15 16 21 19 19 17 16 16 15 18 20 19 21 21 16 17 18 15 15 15 13 14
2 1 1 1 0 0 0 1 1 2 5 15 11 12 14 17 24 22 21 16 15 14 14 13 15 16 17 16 14 14 13 13 13 15 15 18 18 23 23 21 24 23 17 14 13 11 14
2 1 1 1 1 0 1 1 1 1 3 9 11 12 16 20 21 20 15 14 14 14 15 13 13 17 14 11 11 11 12 12 13 13 12 15 18 17 21 26 27 18 13 11 12 13 11
2 1 1 1 1 1 1 1 1 1 2 6 7 8 13 20 15 14 15 14 13 13 14 14 12 12 11 13 20 26 25 24 22 15 14 12 14 18 21 27 19 17 13 12 14 15 9
1 1 1 1 1 1 1 1 1 1 1 4 6 7 10 14 17 12 14 14 18 18 18 14 11 11 11 16 26 30 31 28 27 23 14 12 12 16 26 25 27 16 11 9 9 17 8
1 1 1 1 1 1 1 1 1 1 1 4 5 5 8 13 13 13 17 16 13 16 15 16 13 13 11 28 27 30 28 21 26 29 25 27 24 19 18 19 17 13 10 9 18 16 9
2 1 1 1 1 1 1 1 1 1 1 3 5 5 7 11 10 11 11 14 15 14 16 14 14 19 23 24 28 25 28 22 22 19 19 19 19 20 23 25 22 11 10 13 11 9 8
2 2 1 1 1 1 2 2 1 1 1 2 7 5 5 8 9 9 8 7 8 9 11 11 13 16 14 21 24 23 23 22 19 22 15 20 15 15 15 15 10 9 9 7 7 9 8